Weather History for Oshkosh, WI

Change the Weather History Date:

Wednesday, December 26, 2012

  Actual Average Record
Temperature  
Mean Temperature 24 °F -  
Max Temperature 26 °F 24 °F 44 °F (2014)
Min Temperature 21 °F 6 °F -18 °F (1962)
Degree Days  
Heating Degree Days 42    
Moisture  
Dew Point 17 °F    
Average Humidity 78    
Maximum Humidity 88    
Minimum Humidity 69    
Precipitation  
Precipitation 0.00 in - - ()
Sea Level Pressure  
Sea Level Pressure 30.24 in    
Wind  
Wind Speed 13 mph (North)    
Max Wind Speed 18 mph    
Max Gust Speed 25 mph    
Visibility 10 miles    
Events Snow    
Averages and records for this station are not official NWS values.
T = Trace of Precipitation, MM = Missing Value Source: NWS Daily Summary

Daily Weather History Graph

Daily Weather History Graph

Search for Another Location

Airport:

Trip Planner

Search our weather history database for the weather conditions in past years. The results will help you decide how hot, cold, wet, or windy it might be!

Date:

Astronomy

Dec. 26, 2012 Rise Set
Actual Time 7:27 AM CST 4:22 PM CST
Civil Twilight 6:54 AM CST 4:55 PM CST
Nautical Twilight 6:18 AM CST 5:31 PM CST
Astronomical Twilight 5:43 AM CST 6:07 PM CST
Moon 3:16 PM CST (12/26) 5:50 AM CST (12/26)
Length of Visible Light 10h 00m
Length of Day
8h 54m
Waxing Gibbous, 97% of the Moon is Illuminated
Dec 26
Waxing Gibbous
Dec 28
Full
Jan 4
Last Quarter
Jan 11
New
Jan 18
First Quarter

Hourly Weather History & Observations

Time (CST) Temp. Windchill Dew Point Humidity Pressure Visibility Wind Dir Wind Speed Gust Speed Precip Events Conditions
12:17 AM 23.0 °F 12.4 °F 17.6 °F 80% 30.30 in 10.0 mi NNE 10.4 mph - N/A   Overcast
12:53 AM 21.9 °F 9.8 °F 17.1 °F 82% 30.36 in 10.0 mi NNE 12.7 mph - N/A   Overcast
1:07 AM 21.2 °F 10.1 °F 17.6 °F 86% 30.29 in 10.0 mi NNE 10.4 mph - N/A   Overcast
1:30 AM 21.2 °F 8.3 °F 17.6 °F 86% 30.29 in 8.0 mi NNE 13.8 mph - 0.00 in Snow Light Snow
1:53 AM 21.9 °F 8.2 °F 18.0 °F 85% 30.35 in 10.0 mi NNE 16.1 mph - 0.00 in   Overcast
2:53 AM 21.0 °F 9.3 °F 17.1 °F 85% 30.34 in 10.0 mi NNE 11.5 mph - N/A   Overcast
3:53 AM 21.0 °F 7.6 °F 18.0 °F 88% 30.33 in 10.0 mi NNE 15.0 mph - N/A   Overcast
4:21 AM 21.2 °F 8.3 °F 17.6 °F 86% 30.25 in 10.0 mi NNE 13.8 mph - N/A   Overcast
4:37 AM 21.2 °F 8.9 °F 17.6 °F 86% 30.25 in 10.0 mi NNE 12.7 mph - N/A   Overcast
4:53 AM 21.0 °F 7.1 °F 17.1 °F 85% 30.31 in 10.0 mi NNE 16.1 mph - N/A   Overcast
5:53 AM 21.0 °F 6.2 °F 16.0 °F 81% 30.30 in 10.0 mi NNE 18.4 mph 25.3 mph N/A   Overcast
6:34 AM 21.2 °F 7.8 °F 15.8 °F 80% 30.21 in 10.0 mi NNE 15.0 mph 23.0 mph N/A   Overcast
6:53 AM 21.0 °F 7.6 °F 16.0 °F 81% 30.28 in 10.0 mi NNE 15.0 mph 25.3 mph N/A   Overcast
7:53 AM 21.0 °F 6.6 °F 16.0 °F 81% 30.28 in 10.0 mi NNE 17.3 mph - N/A   Overcast
8:53 AM 21.0 °F 7.6 °F 16.0 °F 81% 30.28 in 10.0 mi North 15.0 mph - N/A   Overcast
9:53 AM 21.9 °F 9.8 °F 16.0 °F 78% 30.28 in 10.0 mi NNE 12.7 mph - N/A   Overcast
10:25 AM 21.2 °F 10.9 °F 17.6 °F 86% 30.20 in 10.0 mi North 9.2 mph - N/A   Overcast
10:53 AM 23.0 °F 11.7 °F 16.0 °F 74% 30.27 in 10.0 mi North 11.5 mph - N/A   Overcast
11:42 AM 23.0 °F 11.1 °F 15.8 °F 74% 30.17 in 10.0 mi North 12.7 mph - N/A   Overcast
11:53 AM 23.0 °F 11.1 °F 16.0 °F 74% 30.23 in 10.0 mi North 12.7 mph - N/A   Overcast
12:12 PM 23.0 °F 11.1 °F 15.8 °F 74% 30.16 in 10.0 mi North 12.7 mph - N/A   Overcast
12:53 PM 24.1 °F 12.5 °F 17.1 °F 75% 30.20 in 10.0 mi North 12.7 mph - N/A   Overcast
1:17 PM 24.8 °F 14.6 °F 17.6 °F 74% 30.13 in 10.0 mi North 10.4 mph - N/A   Overcast
1:53 PM 26.1 °F 12.7 °F 19.0 °F 75% 30.19 in 10.0 mi North 18.4 mph - N/A   Overcast
2:53 PM 25.0 °F 12.6 °F 18.0 °F 75% 30.20 in 10.0 mi North 15.0 mph - N/A   Overcast
3:53 PM 24.1 °F 12.5 °F 16.0 °F 71% 30.22 in 10.0 mi North 12.7 mph - N/A   Clear
4:53 PM 23.0 °F 8.7 °F 15.1 °F 72% 30.22 in 10.0 mi North 18.4 mph - N/A   Mostly Cloudy
5:32 PM 23.0 °F 10.6 °F 15.8 °F 74% 30.16 in 10.0 mi North 13.8 mph - N/A   Mostly Cloudy
5:53 PM 23.0 °F 10.1 °F 15.1 °F 72% 30.22 in 10.0 mi North 15.0 mph - N/A   Overcast
6:53 PM 24.1 °F 11.5 °F 16.0 °F 71% 30.22 in 10.0 mi NNW 15.0 mph - N/A   Overcast
7:39 PM 24.8 °F 12.9 °F 15.8 °F 69% 30.15 in 10.0 mi North 13.8 mph - N/A   Overcast
7:53 PM 24.1 °F 12.5 °F 16.0 °F 71% 30.22 in 10.0 mi North 12.7 mph - N/A   Overcast
8:53 PM 24.1 °F 11.5 °F 17.1 °F 75% 30.21 in 10.0 mi North 15.0 mph - N/A   Overcast
9:53 PM 24.1 °F 12.0 °F 17.1 °F 75% 30.21 in 10.0 mi North 13.8 mph - N/A   Overcast
10:53 PM 24.1 °F 12.5 °F 18.0 °F 77% 30.21 in 10.0 mi NNW 12.7 mph - N/A   Overcast
11:53 PM 24.1 °F 13.1 °F 18.0 °F 77% 30.20 in 10.0 mi NNW 11.5 mph - N/A   Overcast